Location: Oberstdorf
(47.4188°N, 10.2969°E)
Time: 15:59:00
(UTC+01:00)

ISS - Visible Passes

Search period start: 22 February 2018 00:00
Search period end: 04 March 2018 00:00
Orbit: 402 x 407 km, 51.6° (Epoch: 23 February)

Date Brightness Start Highest point End Pass type
(mag) Time Alt. Az. Time Alt. Az. Time Alt. Az.
26 Feb -1.1 06:24:12 10° S 06:26:38 19° SE 06:29:05 10° E visible
27 Feb -0.8 05:33:28 10° SSE 05:34:36 11° SE 05:35:44 10° ESE visible
28 Feb -2.5 06:15:14 10° SW 06:18:18 38° SE 06:21:24 10° ENE visible
01 Mar -1.7 05:23:57 13° S 05:26:09 23° SE 05:28:49 10° E visible
02 Mar -1.1 04:34:05 14° SE 04:34:05 14° SE 04:35:49 10° ESE visible
02 Mar -3.7 06:06:47 10° WSW 06:10:03 75° SSE 06:13:20 10° ENE visible
03 Mar -3.0 05:16:44 32° SSW 05:17:47 46° SSE 05:20:57 10° ENE visible
